Regional Weather Roundup
Issued by NWS

Home | Current Version | Previous Version | Graphics & Text | Print | Product List | Glossary On
Versions: 1 2 3 4 5 6 7 8 9 10 11 12 13 14 15 16 17 18 19 20 21 22 23 24 25 26 27 28 29 30 31 32 33 34 35 36 37 38 39 40 41 42 43 44 45 46 47 48 49 50
000
ASUS43 KLOT 271212
RWRIL

ILLINOIS REGIONAL WEATHER ROUNDUP
NATIONAL WEATHER SERVICE CHICAGO/ROMEOVILLE IL
700 AM CDT WED MAY 27 2015

NOTE: "FAIR" INDICATES FEW OR NO CLOUDS BELOW 12,000 FEET WITH NO
SIGNIFICANT WEATHER AND/OR OBSTRUCTIONS TO VISIBILITY.

* THESE STATIONS ARE NOT UNDER NWS QUALITY CONTROL. THEY ALSO MAY NOT
  REPORT WEATHER SUCH AS PRECIPITATION OR FOG.

ILZ001-002-007-009-015-016-024-271300-
NORTHWEST ILLINOIS

CITY           SKY/WX    TMP DP  RH WIND       PRES   REMARKS
MOLINE         MOSUNNY   62  58  86 SW8       29.95R
6HR MIN TEMP:  61; 6HR MAX TEMP:  65;

STERLING*      CLOUDY    63  59  88 W10       29.94R
SAVANNA*       CLOUDY    64  60  87 W9        29.92R
$$

ILZ003-004-008-010-011-017-018-271300-
NORTH CENTRAL ILLINOIS

CITY           SKY/WX    TMP DP  RH WIND       PRES   REMARKS
ROCKFORD       CLOUDY    64  59  83 SW10      29.92R
6HR MIN TEMP:  62; 6HR MAX TEMP:  65;

FREEPORT*      CLOUDY    61  59  94 SW12      29.93R
ROCHELLE*      CLOUDY    62  60  94 SW14      29.93R
DE KALB*       CLOUDY    61  58  91 SW12G20   29.94R
PERU*          PTSUNNY   65  61  87 SW12      29.96R
$$

ILZ005-006-012>014-019>023-271300-
NORTHEAST ILLINOIS

CITY           SKY/WX    TMP DP  RH WIND       PRES   REMARKS
CHICAGO-OHARE  PTSUNNY   64  59  83 W15       29.92R
6HR MIN TEMP:  64; 6HR MAX TEMP:  67;

CHICAGO-MIDWAY MOSUNNY   68  62  81 SW14      29.92R
6HR MIN TEMP:  67; 6HR MAX TEMP:  71;

AURORA         MOSUNNY   65  59  81 SW12      29.94R
6HR MIN TEMP:  63; 6HR MAX TEMP:  67;

LANSING*       SUNNY     67  60  79 SW12      29.94S
JOLIET*        PTSUNNY   68  63  85 SW6       29.95R
WAUKEGAN       PTSUNNY   64  60  87 SW13G21   29.89R
6HR MIN TEMP:  63; 6HR MAX TEMP:  64; 6HR PCP:  0.02;

DUPAGE AIRPORT PTSUNNY   63  60  90 SW12      29.92R
6HR MIN TEMP:  63; 6HR MAX TEMP:  67;

KANKAKEE*      MOSUNNY   67  63  87 SW13      29.97R
WHEELING       PTSUNNY   65  59  81 SW12G22   29.93R
6HR MIN TEMP:  64; 6HR MAX TEMP:  68; 6HR PCP:  0.13;

MORRIS*        PTSUNNY   66  62  87 SW10      29.93R
ROMEOVILLE*    MOSUNNY   65  61  85 SW15      29.94R
NORTHERLY ISL    N/A     67  59  75 S2          N/A
$$

LMZ740>746-271300-
SOUTHERN LAKE MICHIGAN

STATION/POSITION SKY/WX   TEMP    WIND        PRES    VSBY  WAVE
                          AIR SEA DIR/SP/G                  HT/PER
                          (F)     (DEG/KT/KT) (MB)    (MI)  (FT/S)
SOUTHERN BUOY              48 38  210/ 14/ 16 1012.5R         1/ 4
HARRISON CRIB              66     210/ 19/ 24   N/A
BURNHAM HARBOR             67     250/  9/ 10   N/A
CALUMET HARBOR             66     200/  7/ 11   N/A
BURNS HARBOR               66     220/ 12/ 16 1014.2R
MICHIGAN CITY              66     180/ 16/ 20   N/A
MICHIGAN CITY 6N           61 52  220/ 12/ 16   N/A           2/ 3
ST. JOSEPH                 60 55  230/ 12/ 12   N/A           2/ 4
$$

ILZ025>027-034>036-040-047-049-050-058-095>099-271300-
WEST-CENTRAL ILLINOIS

CITY           SKY/WX    TMP DP  RH WIND       PRES   REMARKS
QUINCY         PTSUNNY   65  63  93 W7        29.99R
GALESBURG*     SUNNY     64  59  86 W7        29.96F
MACOMB*        MOSUNNY   64  62  96 W6        29.99F
JACKSONVILLE*  PTSUNNY   68  64  84 SW12      30.01R
PITTSFIELD*    CLOUDY    66  63  89 S8        30.03R
$$

ILZ028>032-037-038-041>044-048-051>054-059>061-271300-
CENTRAL ILLINOIS

CITY           SKY/WX    TMP DP  RH WIND       PRES   REMARKS
PONTIAC        PTSUNNY   67  64  89 SW10      29.97S
BLOOMINGTON    PTSUNNY   66  64  93 SW10      30.00R
DECATUR        PTSUNNY   67  62  84 SW10      30.02R
PEORIA         MOSUNNY   67  63  87 W6        29.96S
6HR MIN TEMP:  65; 6HR MAX TEMP:  71; 6HR PCP:  0.01;

LACON*         MOSUNNY   65  58  77 W8        29.95S
LINCOLN*       MOSUNNY   68  63  83 SW5       29.98R
SPRINGFIELD    PTSUNNY   68  63  84 SW12      30.01R
6HR MIN TEMP:  67; 6HR MAX TEMP:  70; 6HR PCP:  0.01;

TAYLORVILLE    PTSUNNY   64  63  94 S10       30.02R
$$

ILZ033-039-045-046-055>057-062-063-271300-
EAST-CENTRAL ILLINOIS

CITY           SKY/WX    TMP DP  RH WIND       PRES   REMARKS
CHAMPAIGN      MOSUNNY   68  63  84 SW8       30.01R
DANVILLE*      PTSUNNY   66  63  88 SW9       29.98S
RANTOUL*       CLOUDY    68  64  86 SW12      30.00R
MATTOON        PTSUNNY   66  63  90 S12       30.03R
PARIS*         MOSUNNY   69  64  84 SW15      30.04R
$$

ILZ079-100>102-271300-
SOUTHWEST ILLINOIS

CITY           SKY/WX    TMP DP  RH WIND       PRES   REMARKS
ALTON          MOSUNNY   66  66 100 S7        30.03F
BELLEVILLE     CLOUDY    66  66 100 S6        30.04R
CAHOKIA*       CLOUDY    70  63  78 SW7G18    30.06R
SPARTA*        CLOUDY    67  64  90 S8        30.06R
$$

ILZ064>066-069>071-074>076-080>082-084>086-088>090-092>094-271300-
SOUTH-CENTRAL ILLINOIS

CITY           SKY/WX    TMP DP  RH WIND       PRES   REMARKS
CARBONDALE     PTSUNNY   65  63  93 S3        30.08R
6HR MIN TEMP:  64; 6HR MAX TEMP:  67;

CAIRO*         PTSUNNY   66  65  96 S5        30.10R
EFFINGHAM*     LGT RAIN  67  62  85 S7        30.07R
MARION         PTSUNNY   66  64  94 MISG      30.09R
MT. VERNON     PTSUNNY   64  61  88 S3        30.07R
CENTRALIA*     CLOUDY    65  62  88 S7        30.06R
SALEM*         CLOUDY    68  64  85 SW7       30.07R
METROPOLIS*    MOSUNNY   66  66 100 CALM      30.09R
$$

ILZ067-068-072-073-078-083-087-091-271300-
SOUTHEAST ILLINOIS

CITY           SKY/WX    TMP DP  RH WIND       PRES   REMARKS
LAWRENCEVILLE  MOSUNNY   67  63  87 S9        30.08R
FLORA*         MOSUNNY   65  63  90 S7        30.08R
FAIRFIELD*     MOSUNNY   66  63  90 S6        30.07R
HARRISBURG*    MOSUNNY   66  65  96 CALM      30.10R
ROBINSON*      MOSUNNY   67  63  85 S8        30.06F
CARMI*         MOSUNNY   64  59  82 S6        30.09R
$$

ABBREVIATIONS USED IN REMARKS
   TC - TEMPERATURE IN CELSIUS
  WCI - WIND CHILL INDEX
   HX - HEAT INDEX
  VSB - VISIBILITY
$$



USA.gov is the U.S. government's official web portal to all federal, state and local government web resources and services.